This is the latest recevied weather packets stored in our database for station/object K5OLV. If no packets are shown the sender has not sent any weather packets the latest 10 day(s).
| Time | Temp. | Humidity | Pressure | Rain* | Wind** | Luminosity | Snow |
|---|---|---|---|---|---|---|---|
| 1778081557 | 17.78° C | 98% | 1012.1 hPa | 0 mm | - | 126 W/m² | - |
| 1778081253 | 17.78° C | 98% | 1012.2 hPa | 0 mm | - | 86 W/m² | - |
| 1778080951 | 17.22° C | 98% | 1012.1 hPa | 0 mm | - | 58 W/m² | - |
| 1778080650 | 17.78° C | 98% | 1011.9 hPa | 0 mm | - | 239 W/m² | - |
| 1778080346 | 17.78° C | 98% | 1011.2 hPa | 0 mm | - | 291 W/m² | - |
| 1778080042 | 17.22° C | 98% | 1010.6 hPa | 0 mm | - | 408 W/m² | - |
| 1778079739 | 17.22° C | 98% | 1010.7 hPa | 0 mm | - | 189 W/m² | - |
| 1778079437 | 17.22° C | 98% | 1010.8 hPa | 0 mm | - | 151 W/m² | - |
| 1778079133 | 16.67° C | 98% | 1011.2 hPa | 0 mm | - | 149 W/m² | - |
| 1778078830 | 17.22° C | 98% | 1011.9 hPa | 1.78 mm | - | 117 W/m² | - |
| 1778078527 | 16.67° C | 98% | 1011.5 hPa | 6.1 mm | - | 116 W/m² | - |
| 1778078225 | 16.67° C | 98% | 1010.9 hPa | 7.11 mm | - | 44 W/m² | - |
| 1778077923 | 16.67° C | 98% | 1012.9 hPa | 10.67 mm | - | 24 W/m² | - |
| 1778077621 | 16.67° C | 97% | 1012.8 hPa | 10.67 mm | - | 20 W/m² | - |
| 1778077318 | 16.67° C | 97% | 1013 hPa | 10.67 mm | - | 9 W/m² | - |
| 1778077016 | 17.22° C | 97% | 1011.7 hPa | 11.94 mm | - | 9 W/m² | - |
| 1778076714 | 17.22° C | 97% | 1012.1 hPa | 8.89 mm | - | 10 W/m² | - |
| 1778076411 | 17.22° C | 97% | 1011.9 hPa | 4.83 mm | - | 18 W/m² | - |
| 1778076108 | 17.22° C | 96% | 1011.5 hPa | 3.56 mm | - | 12 W/m² | - |
| 1778075805 | 17.22° C | 96% | 1011.6 hPa | 3.05 mm | - | 9 W/m² | - |
| 1778075501 | 17.22° C | 96% | 1011.4 hPa | 3.05 mm | - | 15 W/m² | - |
| 1778075198 | 17.22° C | 95% | 1011.4 hPa | 1.78 mm | - | 12 W/m² | - |
| 1778074894 | 17.22° C | 95% | 1011.4 hPa | 0 mm | - | 14 W/m² | - |
| 1778074592 | 17.22° C | 95% | 1011.4 hPa | 0 mm | - | 6 W/m² | - |
| 1778074288 | 17.22° C | 94% | 1011.5 hPa | 0 mm | - | 10 W/m² | - |
* Rain latest hour (hover to see other rain measurements)
** Current wind speed in m/s (hover to see current wind gust speed)